Simultaneous Nadir Overpasses (SNOs) Predictions

Prediction of SNOs between GOES-17 and AQUA Satellite Orbit:

Table of predicted SNOs for the next 14.0 days since TLE Epoch: 8/21/2020
Index Date Time (GOES-17) GOES-17 Lat,Lon AQUA Lat,Lon Distance(km) Time Diff (sec)
1 08/22/2020 22:30:31 -0.03,-137.18 0.76,-133.47 421.25 80
2 08/23/2020 10:49:06 0.03,-137.17 0.34,-138.63 165.40 80
3 08/25/2020 10:39:35 0.03,-137.16 -0.30,-135.68 168.72 80
4 08/25/2020 22:58:18 -0.03,-137.15 -0.84,-140.86 422.51 80
5 08/27/2020 22:46:08 -0.01,-137.12 -0.20,-137.91 89.55 80
6 08/29/2020 22:36:37 0.01,-137.09 0.45,-134.96 242.73 80
7 08/30/2020 10:55:11 -0.01,-137.09 0.65,-140.11 344.33 80
8 09/01/2020 10:43:00 -0.00,-137.05 -0.00,-137.16 11.90 80
9 09/03/2020 10:33:29 -0.00,-137.02 -0.60,-134.20 320.67 80
10 09/03/2020 22:52:13 0.00,-137.01 -0.48,-139.40 270.97 80
